This demonstration page uses our WeatherBlox Daily Observations layout. Learn more.

Hourly Observations for December 25, 2016

Temp ( °F °C ) Dew Point ( °F °C ) Humidity (%) Winds ( mph kmh ) Pressure ( in mb ) Visibility ( mi km ) Precip ( " mm )
12:15 am 00:15 Cloudy with Mist and Fog 32 0 31 -0.5 96 96 ESE 15 24 29.97 1015 0.75 1.207005 0 0
12:35 am 00:35 Cloudy with Fog 32 0.1 31 -0.3 97 97 ESE 15 24 29.97 1015 0.5 0.80467 0 0
12:55 am 00:55 Cloudy with Fog 32 0.2 32 -0.1 98 98 ESE 13 20 29.94 1014 0.25 0.402335 0 0
1:15 am 01:15 Cloudy with Fog 33 0.3 32 0 98 98 ESE 12 19 29.94 1014 0.25 0.402335 0 0
1:35 am 01:35 Cloudy with Fog 33 0.5 32 0 96 96 ESE 10 17 29.94 1014 0.25 0.402335 0 0
1:55 am 01:55 Cloudy with Fog 33 0.8 33 0.3 97 97 SE 12 19 29.91 1013 0.25 0.402335 0 0
2:15 am 02:15 Cloudy with Fog 34 1 33 0.5 97 97 ESE 10 17 29.88 1012 0.25 0.402335 0 0
2:35 am 02:35 Cloudy with Fog 35 1.4 34 0.9 97 97 SE 10 17 29.88 1012 0.25 0.402335 0 0
2:55 am 02:55 Cloudy with Fog 35 1.6 34 1.1 97 97 SE 15 24 29.88 1012 0.25 0.402335 0 0
3:15 am 03:15 Cloudy with Light Snow 35 1.9 35 1.4 97 97 SE 15 24 29.88 1012 0.25 0.402335 0 0
3:35 am 03:35 Cloudy with Fog 36 2 35 1.5 97 97 SE 12 19 29.85 1011 0.25 0.402335 0 0
3:55 am 03:55 Cloudy with Fog 36 2 35 1.5 97 97 ESE 12 19 29.85 1011 0.25 0.402335 0 0
4:15 am 04:15 Cloudy with Fog 35 1.7 34 1.2 97 97 ESE 16 26 29.85 1011 0.25 0.402335 0 0
4:35 am 04:35 Cloudy with Light Snow 35 1.8 34 1.3 97 97 ESE 14 22 29.85 1011 0.25 0.402335 0 0
4:55 am 04:55 Cloudy with Light Snow 36 2.1 35 1.6 97 97 ESE 17 28 29.85 1011 0.25 0.402335 0 0
5:15 am 05:15 Cloudy with Fog 36 2.3 35 1.8 97 97 SE 14 22 29.85 1011 0.5 0.80467 0 0
5:35 am 05:35 Cloudy with Mist and Fog 37 2.6 36 2.1 97 97 ESE 14 22 29.83 1010 0.75 1.207005 0 0
5:55 am 05:55 Cloudy with Mist and Fog 37 3 37 2.5 97 97 ESE 15 24 29.8 1009 0.75 1.207005 0 0
6:15 am 06:15 Cloudy with Mist and Fog 38 3.1 37 2.7 97 97 ESE 13 20 29.8 1009 0.75 1.207005 0 0
6:35 am 06:35 Cloudy with Fog 38 3.3 37 2.9 97 97 ESE 14 22 29.74 1007 0.5 0.80467 0 0
6:55 am 06:55 Cloudy with Fog 38 3.5 37 3 97 97 ESE 14 22 29.74 1007 0.5 0.80467 0 0
7:15 am 07:15 Cloudy with Mist and Fog 39 3.7 38 3.2 97 97 ESE 14 22 29.74 1007 1 1.60934 0 0
7:35 am 07:35 Cloudy with Light Rain 39 4.1 38 3.6 97 97 ESE 21 33 29.74 1007 1 1.60934 0 0
7:55 am 07:55 Cloudy with Light Rain 39 4.1 39 3.7 97 97 ESE 21 33 29.71 1006 0.75 1.207005 0 0
8:15 am 08:15 Cloudy with Light Rain 39 3.9 38 3.5 97 97 ESE 17 28 29.68 1005 0.75 1.207005 0 0
8:35 am 08:35 Cloudy with Light Rain 39 3.9 38 3.5 97 97 ESE 17 28 29.68 1005 0.75 1.207005 0.01 0.254
8:55 am 08:55 Cloudy with Light Rain 39 4 38 3.6 97 97 ESE 17 28 29.65 1004 0.5 0.80467 0.01 0.254
9:15 am 09:15 Cloudy with Light Rain 40 4.5 39 4 97 97 ESE 16 26 29.62 1003 0.25 0.402335 0 0
9:35 am 09:35 Cloudy with Light Rain 41 5.1 40 4.7 97 97 ESE 20 31 29.59 1002 0.25 0.402335 0 0
9:55 am 09:55 Cloudy with Light Rain 43 6.1 42 5.7 97 97 ESE 20 31 29.56 1001 0.25 0.402335 0 0
10:15 am 10:15 Cloudy with Light Rain 45 7.2 44 6.9 98 98 ESE 21 33 29.53 1000 0.25 0.402335 0 0
10:35 am 10:35 Cloudy with Light Rain 45 7.2 44 6.8 97 97 ESE 20 31 29.5 999 0.25 0.402335 0 0
10:55 am 10:55 Cloudy with Light Rain 49 9.4 48 9 97 97 SE 24 39 29.47 998 0.25 0.402335 0 0
11:15 am 11:15 Cloudy with Light Rain 51 10.4 50 10 97 97 ESE 26 43 29.38 995 0.25 0.402335 0 0
11:35 am 11:35 Cloudy 52 11.2 51 10.8 97 97 SE 26 43 29.38 995 0.25 0.402335 0 0
11:55 am 11:55 Cloudy with Heavy Thunderstorms 54 12 53 11.6 97 97 SSW 28 44 29.41 996 1.5 2.41401 0.18 4.572
12:15 pm 12:15 Cloudy with Light Rain 47 8.6 47 8.2 97 97 S 18 30 29.44 997 5 8.0467 0.06 1.524
12:35 pm 12:35 Cloudy with Rain 47 8.2 46 7.8 97 97 SSE 13 20 29.44 997 7 11.26538 0.08 2.032
12:55 pm 12:55 Cloudy with Light Rain 48 9 47 8.3 95 95 SSW 23 37 29.41 996 10 16.0934 0.08 2.032
1:15 pm 13:15 Cloudy with Light Rain 49 9.3 44 6.5 83 83 S 16 26 29.41 996 10 16.0934 0.01 0.254
1:35 pm 13:35 Cloudy 48 9.1 42 5.6 79 79 SE 23 37 29.35 994 10 16.0934 0.01 0.254
1:55 pm 13:55 Cloudy 48 8.7 42 5.7 82 82 SE 22 35 29.32 993 10 16.0934 0.01 0.254
2:15 pm 14:15 Mostly Cloudy 47 8.5 41 5.1 79 79 SSE 26 43 29.32 993 10 16.0934 0 0
2:35 pm 14:35 Partly Cloudy 49 9.6 42 5.4 75 75 SSE 28 44 29.26 991 10 16.0934 0 0
2:55 pm 14:55 Partly Cloudy 50 10.1 40 4.6 69 69 S 30 48 29.26 991 10 16.0934 0 0
3:15 pm 15:15 Mostly Cloudy 50 10 41 5 71 71 S 21 33 29.29 992 10 16.0934 0 0
3:35 pm 15:35 Partly Cloudy 50 10.2 41 5.2 71 71 S 22 35 29.26 991 10 16.0934 0 0
3:55 pm 15:55 Sunny 50 10.2 40 4.2 67 67 S 22 35 29.26 991 10 16.0934 0 0
4:15 pm 16:15 Sunny 50 10.2 33 0.8 52 52 S 24 39 29.26 991 10 16.0934 0 0
4:35 pm 16:35 Sunny 50 10 30 -1.1 46 46 S 23 37 29.26 991 10 16.0934 0 0
4:55 pm 16:55 Sunny 49 9.2 24 -4.5 38 38 S 26 43 29.26 991 10 16.0934 0 0
5:15 pm 17:15 Sunny 48 9 22 -5.5 36 36 S 31 50 29.23 990 10 16.0934 0 0
5:35 pm 17:35 undefined 43 6 31 -0.6 63 63 SW 45 72 29.29 992 N/A 0 0
5:55 pm 17:55 Clear 37 2.7 27 -2.6 68 68 SW 43 69 29.38 995 10 16.0934 0 0
6:15 pm 18:15 Mostly Cloudy 35 1.5 26 -3.5 70 70 WSW 37 59 29.44 997 10 16.0934 0 0
6:35 pm 18:35 Partly Cloudy 34 1.2 25 -3.7 70 70 WSW 29 46 29.47 998 10 16.0934 0 0
6:55 pm 18:55 Cloudy 36 2.2 27 -3 69 69 WSW 29 46 29.47 998 10 16.0934 0 0
7:15 pm 19:15 Mostly Cloudy 34 1.2 25 -3.9 69 69 WSW 40 65 29.53 1000 10 16.0934 0 0
7:35 pm 19:35 Partly Cloudy 32 0 22 -5.3 68 68 W 31 50 29.59 1002 10 16.0934 0 0
7:55 pm 19:55 Partly Cloudy 32 0 22 -5.4 67 67 W 33 54 29.62 1003 10 16.0934 0 0
8:15 pm 20:15 Mostly Cloudy 31 -0.5 20 -6.5 64 64 W 31 50 29.65 1004 10 16.0934 0 0
8:35 pm 20:35 Cloudy 31 -0.5 21 -6.3 65 65 W 20 31 29.68 1005 10 16.0934 0 0
8:55 pm 20:55 Mostly Cloudy 30 -1.2 19 -7.4 63 63 WSW 14 22 29.74 1007 10 16.0934 0 0
9:15 pm 21:15 Mostly Cloudy 29 -1.9 17 -8.1 63 63 W 22 35 29.74 1007 10 16.0934 0 0
9:35 pm 21:35 Mostly Cloudy 28 -2 18 -7.7 65 65 W 20 31 29.74 1007 10 16.0934 0 0
9:55 pm 21:55 Partly Cloudy 28 -2.3 17 -8.3 64 64 W 21 33 29.74 1007 10 16.0934 0 0
10:15 pm 22:15 Clear 27 -2.7 17 -8.6 64 64 W 21 33 29.77 1008 10 16.0934 0 0
10:35 pm 22:35 Clear 26 -3.3 16 -9.1 65 65 W 20 31 29.83 1010 10 16.0934 0 0
10:55 pm 22:55 Clear 26 -3.3 15 -9.2 64 64 W 15 24 29.83 1010 10 16.0934 0 0
11:15 pm 23:15 Clear 26 -3.6 15 -9.6 64 64 W 23 37 29.85 1011 10 16.0934 0 0
11:35 pm 23:35 Clear 26 -3.5 14 -10.2 60 60 W 18 30 29.85 1011 10 16.0934 0 0
11:55 pm 23:55 Clear 26 -3.5 13 -10.8 57 57 W 18 30 29.88 1012 10 16.0934 0 0

Powered by AerisWeather